Theta_e
304 295 292 291 295 297 299 299 299 299 299 298 298 296 294 294 294 298 295 298 297 296 294 295 295 295 297 296 295 296 296 296 296 295 295 294 294 294 294 295 295 295 294 296 297 297 298 298 298 300 301 301 302 302 304 303 303 303 304 304 303 303 304 303 303 302 301 298 297 297 296 295 295 294 294 293 293 293 293 294 294 294 294 295 295 296
304 294 294 298 299 300 300 301 300 299 298 297 296 294 292 295 292 297 296 296 298 295 293 295 294 296 297 299 296 296 295 294 295 295 294 294 294 294 294 294 294 294 295 295 295 296 297 296 299 299 300 301 300 299 301 302 303 303 303 302 302 302 302 300 299 297 296 295 294 294 293 293 292 292 291 291 291 292 293 292 293 293 293 293 293 294
294 292 297 300 302 302 301 300 299 298 297 296 293 293 291 292 296 298 295 296 296 295 291 294 294 295 297 299 296 295 294 296 297 296 296 295 294 294 294 294 294 293 294 294 294 296 296 297 298 298 299 298 299 299 299 302 305 303 301 300 299 298 298 297 297 296 295 295 295 294 292 292 291 292 291 291 291 291 291 291 291 291 292 292 292 292
291 295 299 302 301 300 299 299 298 298 298 294 294 290 289 294 294 290 292 296 295 294 293 293 293 295 298 299 298 296 296 295 298 297 298 296 294 294 294 294 293 293 293 293 293 294 295 296 296 297 297 298 299 298 299 301 301 301 300 299 297 296 295 295 295 295 295 295 294 294 293 292 291 289 290 290 290 290 290 289 290 290 291 291 291 291
294 299 302 301 300 299 297 297 296 293 291 295 295 292 292 294 294 293 292 293 294 295 295 293 291 292 295 295 297 294 294 293 293 293 293 293 295 295 295 294 294 294 293 293 293 293 294 295 295 296 297 298 297 298 297 298 298 299 299 298 297 295 295 295 295 294 294 293 293 293 292 292 291 290 288 288 287 288 289 289 289 289 290 290 290 290
297 301 303 300 299 298 298 295 295 295 290 292 295 295 295 296 294 295 297 294 291 290 293 292 283 285 294 295 296 291 289 291 291 291 291 292 292 292 291 292 293 295 294 293 293 293 294 294 294 296 296 296 296 296 296 296 297 297 297 297 297 296 295 295 295 295 294 293 292 291 290 288 287 286 285 285 285 286 286 287 288 289 289 289 289 289
297 301 301 299 298 298 297 295 297 296 292 290 292 298 297 296 296 296 294 293 284 282 291 294 284 283 292 293 293 289 290 290 290 290 291 292 292 291 291 292 291 293 293 293 293 293 293 293 294 295 295 295 295 295 296 295 295 295 295 295 294 294 294 296 295 295 294 292 292 291 289 288 286 286 286 286 286 286 286 287 287 288 289 289 288 289
298 296 297 298 298 296 294 292 297 296 292 289 297 299 299 297 296 295 295 293 290 294 295 292 291 283 285 292 293 290 290 290 289 289 291 291 291 291 291 292 291 291 291 292 292 292 293 293 294 294 295 294 294 294 293 293 293 293 293 293 293 293 293 294 294 293 293 291 290 289 288 288 287 286 286 287 287 287 287 286 286 287 287 288 288 288
297 294 297 296 295 294 293 296 299 298 294 294 296 299 296 298 297 296 294 290 289 287 284 286 291 283 283 290 292 291 288 289 289 289 290 291 291 291 291 292 291 292 291 291 291 292 292 293 293 293 292 293 293 293 292 292 291 292 292 292 292 292 292 292 292 292 291 291 290 289 288 287 287 287 287 287 288 287 287 286 286 286 286 287 288 288
298 297 299 299 295 293 296 296 299 299 294 296 298 298 296 297 295 296 290 288 287 286 283 285 290 283 285 290 288 290 289 289 290 290 290 291 290 290 291 291 292 292 291 292 292 292 291 291 291 291 291 291 290 291 292 291 292 292 291 291 291 291 291 292 291 291 290 290 289 288 287 287 287 287 287 287 287 286 286 286 285 285 285 285 286 287
296 296 298 298 296 298 294 294 295 298 297 298 298 295 293 292 290 290 290 287 284 282 284 289 291 288 283 289 289 288 289 293 293 291 291 291 290 291 291 291 291 291 291 291 291 291 290 289 289 290 289 289 290 290 291 291 291 291 291 290 290 290 291 291 291 290 290 290 289 288 288 287 287 287 287 286 286 286 285 285 285 285 285 285 285 285
296 297 297 298 298 297 297 293 295 296 297 297 293 290 290 287 287 285 285 286 280 281 284 289 290 290 281 284 291 293 294 294 295 291 291 290 290 290 291 291 291 291 291 291 290 288 288 288 288 289 288 289 289 290 290 290 290 290 290 290 289 290 290 290 290 290 290 290 289 289 289 288 288 288 287 286 286 286 285 285 285 285 285 284 285 284
290 292 296 296 298 298 296 293 291 294 295 295 292 290 285 282 281 278 281 278 279 280 281 285 290 285 286 291 291 292 293 292 294 294 292 291 290 290 290 291 290 290 290 289 288 287 287 287 287 287 288 288 288 289 289 290 290 290 289 289 289 289 289 290 290 290 290 289 289 289 289 288 288 288 287 287 286 286 285 285 285 284 283 283 283 283
289 294 296 295 296 297 299 291 286 285 289 292 290 286 283 281 279 276 278 280 280 282 283 284 287 284 287 289 297 296 290 292 291 294 293 292 291 291 290 290 290 290 289 289 288 287 287 287 287 287 287 288 288 288 289 289 289 289 289 289 288 288 289 289 289 289 289 289 289 289 289 289 288 287 287 287 286 286 286 285 284 284 283 283 282 282
283 284 291 293 288 297 298 297 295 292 290 292 294 291 287 286 280 276 280 278 279 280 281 284 282 280 281 286 287 288 289 289 290 292 293 292 292 291 291 290 290 290 289 289 288 288 288 288 287 287 288 288 288 288 288 288 288 288 288 288 288 288 288 288 288 289 289 288 289 289 288 288 288 287 287 286 286 286 285 285 284 283 283 282 282 282
288 289 295 298 296 297 295 299 300 294 289 291 294 294 288 286 288 284 282 281 279 279 277 278 281 283 286 288 288 288 288 289 290 291 291 290 291 290 290 289 289 289 289 288 288 288 288 288 287 287 287 287 287 288 288 288 288 288 288 288 288 288 288 288 288 288 288 288 288 288 287 287 287 287 286 286 286 285 285 284 283 283 283 282 282 283
288 286 293 295 296 295 296 298 299 298 285 289 291 287 289 293 292 285 281 280 280 279 278 283 282 284 288 287 287 287 287 287 288 289 289 290 290 289 289 289 289 289 289 288 288 287 287 287 286 287 287 287 287 287 288 288 288 288 288 288 287 287 288 288 288 288 288 288 287 287 287 287 287 286 285 285 284 284 284 283 283 282 282 283 282 283
288 290 291 292 291 293 291 293 299 297 297 291 284 289 293 295 292 286 281 280 279 278 281 281 281 280 282 283 285 285 284 285 287 288 289 289 289 288 289 289 289 289 288 288 288 287 287 286 286 286 287 287 287 287 288 288 288 288 288 288 287 287 287 287 288 288 287 287 287 287 286 286 286 285 285 285 284 284 283 282 282 282 281 281 282 282
297 287 289 292 292 292 294 296 295 296 295 291 288 296 290 282 282 284 283 279 277 279 281 280 282 283 285 286 282 284 285 285 286 288 288 288 288 288 288 289 289 288 288 287 287 287 286 286 286 286 286 286 287 287 288 288 288 288 288 288 288 287 287 287 288 287 287 287 287 287 286 285 285 285 284 284 284 283 282 282 281 281 280 280 280 280
295 288 287 289 291 292 292 292 285 287 294 294 294 289 294 287 283 282 285 282 283 280 278 282 281 282 287 289 287 288 288 288 287 287 288 289 289 289 289 289 289 288 288 288 287 287 286 286 285 285 286 286 286 287 287 287 287 287 287 287 287 287 287 287 287 287 286 286 286 285 285 284 284 284 283 283 282 282 281 281 280 280 279 279 279 278
291 293 286 285 290 291 283 287 288 290 287 285 285 283 288 285 288 286 286 285 282 279 280 279 279 283 288 294 291 292 291 290 288 288 289 290 290 290 290 289 289 289 288 288 287 287 286 286 285 285 284 285 285 286 287 287 286 286 287 286 286 286 286 286 286 286 286 285 285 284 283 283 283 282 282 282 281 280 280 279 279 278 278 278 277 277
290 287 287 283 282 283 286 292 293 294 293 291 289 287 289 287 284 281 281 287 285 282 280 280 280 282 291 292 293 294 293 292 291 290 290 290 290 290 290 290 290 289 288 288 288 287 286 285 284 284 284 284 285 285 285 286 286 285 285 286 286 286 286 285 285 285 285 284 284 282 282 281 281 281 280 279 279 278 278 277 278 277 277 276 277 276
296 290 289 283 284 286 290 292 293 292 291 292 291 289 292 289 287 284 281 283 284 285 282 280 278 284 289 290 289 289 292 293 292 291 289 291 290 291 291 291 290 290 289 289 288 287 286 286 285 284 284 284 284 284 285 285 285 285 285 285 285 285 285 285 285 284 284 283 282 281 281 280 280 279 279 278 278 277 277 276 277 277 276 276 276 276
294 288 286 287 288 290 289 292 293 292 293 289 289 291 289 288 290 288 287 284 283 283 281 281 279 284 288 288 287 286 286 288 291 292 291 291 291 291 291 290 290 290 289 288 288 287 287 285 284 284 283 284 284 284 285 285 285 285 285 285 285 284 284 284 284 283 283 282 281 281 280 280 279 278 277 277 276 276 276 276 276 277 276 276 275 275
290 288 288 285 283 283 285 288 287 289 289 284 285 290 291 291 289 287 285 286 283 285 284 282 278 282 284 286 287 286 286 288 289 291 292 291 290 291 291 291 291 290 289 288 287 287 285 284 284 284 284 284 284 284 284 285 285 285 284 284 284 284 284 284 283 283 282 281 280 280 279 279 278 277 276 276 275 275 275 275 275 275 275 275 275 274
292 289 288 283 281 279 278 278 280 282 285 287 287 288 291 291 290 287 284 286 282 286 285 283 283 284 286 287 288 287 286 285 288 289 290 291 291 290 290 290 290 289 289 288 287 285 284 284 284 283 283 283 283 283 284 284 284 284 284 284 284 284 284 283 283 282 282 281 280 279 278 278 277 276 275 275 275 275 275 275 274 274 274 274 273 273
287 289 291 289 287 285 287 286 289 289 285 283 285 287 289 291 292 290 288 285 283 285 284 287 288 284 283 286 286 286 286 286 287 287 289 290 289 290 290 290 290 289 288 288 287 286 284 284 283 283 283 283 283 283 283 284 284 284 284 284 284 284 284 283 283 282 281 280 279 279 278 277 276 276 275 275 275 274 274 275 274 273 272 272 272 272
286 287 289 290 290 291 293 292 293 290 286 287 286 286 288 289 289 288 286 285 288 285 283 289 288 287 286 286 287 288 287 287 288 288 288 288 290 290 289 288 289 287 287 287 286 285 284 284 284 283 283 282 283 283 283 283 284 284 284 284 284 283 283 283 282 281 280 280 279 278 277 276 276 276 276 275 274 274 274 274 273 272 272 272 271 271
287 287 290 290 289 292 293 293 294 291 290 288 288 288 286 288 288 287 287 290 288 286 285 289 289 288 289 288 289 290 290 290 290 289 289 289 289 287 287 288 288 288 287 286 286 286 285 284 284 283 283 283 282 282 282 283 283 284 284 284 284 284 284 283 282 281 280 279 279 278 278 277 277 276 276 275 275 274 273 273 272 272 271 271 271 272
289 287 288 288 288 289 290 291 291 290 290 290 289 288 289 288 288 288 289 290 290 288 290 287 287 288 291 290 290 291 292 291 288 289 288 288 287 287 287 287 287 287 287 287 287 287 286 285 284 283 283 282 282 282 283 284 284 284 284 284 283 283 283 283 282 281 281 280 279 278 278 277 276 275 275 275 274 274 274 273 272 272 272 271 269 269
290 287 290 288 286 286 288 289 288 288 288 287 290 291 290 289 288 289 289 289 289 289 290 289 287 286 291 291 291 291 290 289 288 288 288 287 287 286 287 286 286 286 287 287 287 286 286 285 284 283 283 283 282 283 283 284 284 284 284 283 283 283 283 283 282 281 281 280 279 279 278 277 276 275 275 275 275 274 273 273 272 271 270 269 268 268
289 285 286 286 283 284 288 287 287 286 285 285 286 287 289 289 286 287 287 289 288 287 288 288 287 287 289 289 288 287 289 289 288 288 288 287 287 286 286 286 286 286 286 287 287 286 285 285 284 284 283 283 283 283 284 284 284 283 283 283 283 283 283 283 282 281 281 280 279 278 277 276 276 275 275 274 274 273 272 272 270 269 267 266 266 267
286 286 285 285 282 283 287 287 286 286 285 283 284 287 289 290 290 290 290 290 290 291 287 286 287 291 290 290 289 290 288 289 289 289 289 287 286 286 286 286 287 287 287 287 286 286 286 286 286 285 285 285 285 284 284 284 283 283 283 283 283 283 282 282 282 281 281 280 279 278 277 277 276 275 274 274 273 272 271 270 270 268 267 266 266 266
286 286 286 287 281 284 282 284 285 282 276 280 288 289 292 289 290 288 288 289 291 291 289 291 290 290 291 289 291 289 288 289 290 292 291 291 287 285 285 286 286 287 286 286 287 287 287 287 286 286 286 285 285 284 284 284 284 283 283 283 282 282 282 282 281 281 281 280 279 278 277 276 276 275 274 273 272 271 270 269 268 267 266 266 267 267
286 286 286 287 283 281 281 284 280 275 279 286 283 286 285 291 293 290 291 291 291 292 292 290 288 289 291 292 293 293 291 289 290 290 289 289 289 288 287 287 286 286 286 286 286 287 286 287 286 285 285 284 284 284 283 283 283 283 282 282 282 282 281 281 281 281 281 279 278 277 277 276 275 274 273 272 271 270 269 268 268 268 267 267 267 266
286 285 286 284 283 280 278 281 275 277 284 281 283 282 285 287 289 288 288 290 291 291 291 290 290 291 292 290 286 286 287 286 287 286 288 288 290 290 288 288 288 287 287 287 287 287 287 287 286 286 286 285 284 284 284 283 283 283 282 282 282 281 281 281 281 280 280 279 278 277 277 276 275 274 272 271 270 269 268 268 268 267 267 266 266 265
288 287 286 282 285 278 279 280 281 285 284 281 280 282 284 285 286 287 285 288 291 289 290 290 290 291 291 287 286 286 287 288 288 288 286 287 289 289 290 289 289 289 288 288 288 287 287 287 286 286 285 284 284 284 283 283 283 282 281 281 281 281 280 280 280 280 279 278 277 277 277 276 275 273 271 270 269 268 268 268 266 266 266 265 267 266
285 286 286 283 282 283 279 277 278 279 278 283 282 283 287 286 290 290 290 287 289 289 290 291 289 289 288 285 285 285 287 287 285 286 286 284 287 288 287 287 287 287 287 287 286 286 285 285 284 284 285 284 284 284 283 282 282 281 281 280 280 279 279 279 279 279 278 277 277 277 277 276 275 273 270 269 269 268 268 267 266 266 266 265 265 265
285 285 284 284 282 280 279 278 277 277 279 282 283 285 286 287 289 288 285 283 287 287 289 291 290 288 287 285 284 286 286 284 285 288 288 285 286 286 285 284 285 286 285 286 286 285 285 284 284 284 283 283 283 282 282 282 281 281 280 280 279 279 278 279 279 279 278 278 278 277 276 275 273 271 270 269 269 268 268 267 266 266 265 264 264 264
283 283 284 281 281 281 280 279 277 280 278 282 280 281 285 288 290 287 275 277 286 287 288 289 289 288 286 285 285 286 287 284 286 287 286 286 287 287 285 284 283 283 282 282 283 284 284 284 284 282 282 282 282 281 282 281 281 280 280 279 278 278 278 279 279 279 279 278 277 275 273 273 272 271 271 270 268 267 267 266 265 264 264 263 263 263
281 280 283 279 281 282 281 279 281 280 285 283 280 281 282 286 288 278 274 283 285 284 284 287 287 287 285 284 285 285 287 288 285 283 283 283 284 283 283 282 282 282 282 282 282 284 283 282 283 283 283 282 281 281 281 281 281 280 279 278 277 278 279 280 280 279 277 276 274 273 272 271 271 270 269 268 267 267 266 265 265 264 263 262 262 261
280 281 281 282 279 279 281 278 279 282 285 282 280 282 283 286 277 277 284 281 283 283 285 286 286 286 286 285 286 287 284 280 281 281 282 283 283 281 281 282 281 281 281 282 282 281 281 281 280 280 280 280 280 280 280 281 280 279 278 277 277 279 280 278 277 277 275 274 273 272 271 270 269 268 267 266 266 265 264 263 263 263 262 261 261 261
280 279 277 279 281 281 281 279 278 275 282 282 283 283 283 282 282 285 282 280 282 283 284 285 286 286 286 285 285 282 279 280 280 280 280 281 280 280 280 280 280 280 280 280 280 280 281 280 279 279 279 277 278 279 280 280 279 277 277 277 278 278 276 276 276 275 275 273 272 270 269 268 267 266 265 265 265 264 263 262 261 261 261 261 260 260
285 278 278 280 284 276 279 276 278 283 281 283 286 283 283 285 284 283 284 281 282 282 282 283 283 284 285 286 284 279 279 279 279 279 280 279 279 278 278 279 279 279 279 279 280 280 279 279 278 278 276 276 276 277 279 279 278 277 276 278 278 275 275 275 275 274 273 271 270 268 267 265 265 264 263 263 263 262 261 261 260 260 260 260 260 259
285 281 283 279 285 281 280 282 281 281 283 283 282 282 284 284 283 283 283 282 280 280 281 282 282 282 283 283 282 280 279 279 279 279 279 279 279 279 279 279 279 280 280 280 279 279 279 279 279 277 275 274 274 274 276 276 278 276 276 277 275 276 275 274 273 273 271 269 268 266 264 263 262 262 261 261 262 262 261 259 259 259 259 259 260 260
280 282 281 282 281 282 281 282 282 280 282 282 281 282 282 281 281 281 283 281 281 281 282 281 281 281 281 282 282 280 280 279 279 278 278 279 279 278 278 278 278 279 278 278 278 279 278 277 277 276 274 272 272 273 274 275 276 276 277 274 274 274 274 272 272 271 270 268 266 265 263 262 260 260 260 260 261 261 261 260 260 260 260 259 259 260
280 280 281 280 281 281 279 279 279 281 282 281 282 282 281 280 281 280 281 282 282 281 281 282 281 281 281 281 282 280 279 278 279 278 279 279 279 279 279 279 279 279 279 279 279 278 277 276 276 275 274 273 272 273 273 273 275 275 273 273 273 273 272 271 271 270 268 266 265 263 262 262 261 259 259 258 259 260 260 260 260 261 261 260 260 260
279 282 280 280 281 280 279 278 278 279 279 281 282 282 281 280 280 279 280 279 279 279 280 280 281 280 281 280 280 280 279 279 279 278 278 279 279 279 279 279 279 278 277 277 277 277 276 277 277 276 274 274 274 273 272 273 274 273 270 270 272 270 270 270 270 269 268 265 264 262 262 262 261 260 259 259 260 260 260 260 260 261 262 261 261 261
281 283 276 280 279 277 276 278 278 278 279 280 280 280 281 282 280 279 278 279 279 279 279 279 278 280 280 280 279 280 279 279 279 279 279 278 278 278 279 279 278 279 278 277 276 276 277 276 276 276 275 276 274 272 271 271 271 271 270 270 269 269 270 269 268 267 265 264 263 262 262 262 261 260 259 259 259 260 261 261 261 261 261 261 261 262
280 277 279 279 275 276 277 277 278 277 276 279 280 281 281 281 280 279 279 278 278 278 278 278 278 278 278 279 279 279 280 279 278 279 278 279 279 279 278 278 278 278 277 277 277 276 275 275 276 275 275 275 273 272 271 271 270 270 269 267 267 269 269 268 267 265 264 263 263 261 261 261 260 260 260 259 259 259 260 264 265 264 262 262 267 269
279 279 279 277 278 276 280 280 281 282 280 281 282 282 281 281 280 279 279 279 278 278 278 278 277 277 278 278 279 279 279 279 279 279 278 277 279 279 279 279 278 278 278 276 275 272 273 274 274 273 273 274 272 273 272 271 269 269 268 267 267 268 268 267 267 266 264 263 263 262 262 262 261 261 260 260 259 259 259 257 263 269 269 268 267 269
Wind_Speed
5 4 4 6 8 9 7 8 9 8 6 7 1 3 5 5 5 3 4 2 2 1 6 6 5 6 7 7 10 10 6 6 6 7 6 6 6 6 5 5 5 4 6 4 4 3 3 3 3 3 4 4 4 3 4 4 3 3 4 4 6 5 5 5 6 5 6 7 8 9 10 10 8 8 8 9 8 9 9 10 10 9 9 9 10 10
1 5 8 9 10 8 7 8 10 8 8 6 3 4 5 2 6 5 3 2 1 0 2 3 5 8 7 5 8 6 7 9 9 8 8 7 7 6 6 6 5 6 5 5 4 4 4 3 3 3 3 3 4 3 3 3 3 3 4 5 5 5 7 7 6 7 7 7 6 8 8 8 7 7 8 9 8 8 9 10 10 9 9 10 10 9
4 10 9 10 8 6 7 8 5 7 6 5 4 2 3 6 5 2 6 2 1 2 5 5 9 9 9 8 7 12 14 10 11 10 9 10 8 6 6 7 6 7 6 5 5 4 4 3 4 3 3 4 4 3 3 1 1 4 5 5 6 7 6 7 6 7 8 6 7 8 7 9 9 8 8 8 8 8 10 10 9 9 9 9 10 10
6 7 12 9 7 8 7 2 2 2 2 2 2 2 6 3 3 2 0 1 1 2 2 3 8 9 8 9 7 12 11 3 2 3 3 7 9 8 7 7 8 7 8 7 6 6 5 4 4 4 4 4 4 3 2 2 3 4 5 5 6 7 6 7 7 9 9 9 9 10 10 9 10 9 7 9 9 9 10 11 9 10 9 10 10 10
11 3 5 11 9 8 6 4 3 3 4 4 5 5 4 4 5 6 1 2 3 4 4 5 8 11 9 11 10 3 4 5 2 4 2 3 3 5 5 6 6 8 8 8 8 7 6 6 5 5 5 5 4 2 2 3 3 4 5 6 6 6 6 7 8 10 10 11 10 10 10 8 9 8 7 8 9 9 8 9 10 9 9 9 9 9
12 7 1 5 8 7 4 5 6 4 5 5 6 9 7 5 6 4 1 3 1 3 6 6 4 4 7 14 12 5 2 3 3 4 4 4 2 5 6 5 5 6 6 8 8 8 7 6 6 6 5 5 5 3 2 3 4 4 5 5 5 6 6 7 6 7 7 7 8 6 7 9 8 9 8 8 8 8 8 8 6 9 9 9 9 9
5 2 6 5 4 4 5 5 4 8 6 3 3 3 10 8 5 3 5 3 3 3 2 0 5 7 4 7 2 5 7 7 4 7 6 7 7 5 6 6 5 6 7 7 6 6 7 6 6 6 5 5 5 3 2 4 4 5 5 5 5 4 4 3 4 4 4 5 6 7 7 8 8 10 7 6 6 7 6 7 8 8 8 8 9 9
5 3 2 4 5 5 5 7 4 10 5 4 1 3 1 0 1 2 2 3 6 2 1 3 3 7 11 10 3 7 7 8 7 8 8 8 8 8 7 8 7 6 5 7 8 6 6 6 6 7 6 6 5 4 3 4 4 5 5 5 5 4 5 5 6 7 7 8 8 9 8 8 8 9 9 7 7 6 6 8 8 7 8 8 8 8
7 6 6 5 5 6 9 7 4 8 5 2 0 4 2 2 0 1 1 3 3 3 6 4 2 4 7 3 7 11 4 7 11 12 11 10 9 9 9 9 9 8 6 6 7 7 7 7 6 6 6 6 5 4 4 4 4 5 6 6 5 6 5 6 7 8 8 8 8 8 9 10 7 9 8 7 7 7 6 8 6 7 7 7 8 8
2 2 7 10 7 8 3 2 1 8 7 1 2 5 4 3 1 0 1 2 3 2 9 5 6 5 15 4 3 3 4 6 12 13 12 12 11 11 10 9 10 9 8 7 7 7 6 6 6 6 6 6 4 4 4 4 5 5 5 7 7 6 6 6 7 8 8 7 7 8 8 11 9 7 8 6 7 7 5 8 7 6 7 6 7 8
2 2 1 1 5 2 4 2 4 2 3 6 4 4 2 1 1 0 1 0 2 9 10 7 9 7 10 2 9 9 8 11 6 4 6 8 9 9 8 11 10 11 10 9 8 7 7 6 6 7 7 6 4 4 4 5 5 5 6 7 8 6 7 6 7 8 8 7 6 8 8 9 10 9 8 8 7 7 6 7 7 6 6 7 7 7
2 2 0 1 3 4 4 3 5 2 5 7 2 3 3 0 3 0 0 2 3 11 4 13 10 12 10 2 3 4 1 5 9 10 13 13 13 12 10 11 11 10 10 10 10 9 9 8 6 6 7 7 5 5 5 5 5 6 6 8 9 7 7 6 7 8 7 7 7 7 8 9 8 8 7 8 8 7 7 6 7 6 7 7 6 6
5 5 2 3 6 4 3 5 2 2 1 3 5 5 6 2 2 2 2 5 8 10 1 3 12 5 19 11 1 2 1 4 2 10 15 15 14 12 11 12 10 10 9 11 10 10 9 9 9 8 7 7 6 6 6 6 5 6 7 8 10 8 6 7 7 8 7 7 6 6 7 7 8 8 8 7 8 5 7 7 7 7 7 6 6 6
5 6 8 4 1 5 6 9 3 0 6 7 8 8 6 3 4 5 4 3 3 4 1 0 2 8 2 4 13 12 2 1 3 2 12 15 16 15 13 11 10 10 10 10 10 9 9 9 8 7 8 7 7 7 7 6 6 6 7 7 10 8 6 6 7 7 8 7 7 7 7 8 8 8 8 7 8 7 7 7 7 7 6 6 6 6
4 2 8 10 6 9 12 14 14 5 9 11 6 10 10 8 3 4 6 8 6 3 0 2 5 6 5 7 4 4 2 3 4 2 8 8 10 10 9 9 10 10 9 9 9 10 10 10 8 8 8 7 7 7 7 6 6 7 7 8 10 9 7 7 7 7 8 8 7 7 7 7 7 8 8 7 7 7 7 7 7 7 6 7 6 6
14 7 3 18 1 14 15 9 5 6 3 6 6 2 5 10 1 8 0 0 1 1 2 2 6 2 6 1 2 2 3 2 3 5 9 10 10 11 11 12 12 11 11 9 9 9 9 9 8 8 8 7 7 8 6 7 7 8 8 8 8 9 8 8 7 7 7 7 7 7 8 8 8 7 7 7 7 7 7 7 7 7 7 6 6 5
2 5 3 5 2 14 13 5 7 9 6 5 5 10 7 1 5 4 2 1 1 2 10 4 5 6 2 1 3 2 3 1 1 5 7 10 11 11 11 11 11 11 11 10 11 10 10 9 7 8 8 7 8 8 7 7 7 9 10 10 9 8 7 8 7 7 7 8 8 7 7 7 7 7 7 8 8 8 7 7 7 7 7 6 5 5
7 2 2 3 3 1 1 2 3 1 0 7 5 6 4 4 3 3 5 1 2 7 8 8 10 3 4 9 4 4 4 4 4 5 8 8 10 12 11 11 12 12 11 9 8 7 8 8 8 8 7 7 8 8 8 8 7 8 8 10 11 10 10 7 8 8 7 8 8 8 8 7 7 7 7 7 8 7 8 7 7 6 6 5 4 4
1 3 3 1 4 2 3 1 1 2 4 3 4 1 9 3 4 3 2 8 2 7 6 3 5 8 12 10 3 7 8 9 9 7 9 11 12 12 11 11 10 9 10 11 11 11 10 10 10 9 9 7 7 7 7 8 8 8 7 8 9 10 9 9 8 7 7 7 7 6 7 7 7 6 6 6 7 7 8 7 7 6 5 5 4 5
1 5 1 3 2 1 0 3 9 4 1 1 0 2 2 2 2 7 9 1 3 8 3 10 5 13 9 8 14 13 15 14 12 10 13 15 16 14 13 14 14 14 13 13 12 11 11 10 10 10 10 10 10 9 8 8 8 9 9 9 8 8 8 8 9 8 9 7 8 8 7 6 6 6 6 6 7 7 7 6 6 6 5 5 5 5
3 2 6 0 5 5 3 6 10 13 12 4 1 3 2 1 1 2 2 5 4 3 6 7 9 6 4 9 14 15 17 15 18 18 15 14 14 14 14 15 15 15 14 14 13 12 12 11 10 8 7 7 7 6 7 8 9 8 8 8 9 11 10 9 8 8 7 8 8 9 8 7 6 7 7 8 7 7 6 6 5 5 5 5 6 5
2 3 9 3 1 7 3 5 11 11 15 15 16 14 15 11 6 3 9 3 3 3 7 5 15 3 1 5 5 11 12 15 18 19 16 14 14 15 13 13 14 14 13 14 13 12 11 10 10 8 7 6 8 8 8 8 7 7 8 8 9 9 9 9 8 8 8 7 8 7 8 7 6 6 7 7 6 7 6 5 5 5 5 7 5 6
7 2 3 5 8 10 7 0 1 1 2 2 5 5 7 5 4 4 8 6 4 8 3 2 3 11 1 3 4 2 4 12 13 13 12 13 14 14 13 14 14 13 14 14 14 12 11 11 11 11 11 11 10 9 9 8 8 9 8 9 8 10 8 8 9 7 8 8 8 8 7 7 7 7 7 7 6 6 5 4 4 4 6 6 5 4
6 2 2 5 3 0 2 1 0 1 0 3 3 0 5 11 14 14 10 3 6 3 4 3 6 6 2 4 4 3 3 4 6 9 11 11 11 11 12 13 14 12 11 10 9 9 10 10 9 10 11 11 11 11 11 9 8 9 8 9 9 10 9 8 8 9 8 8 8 8 8 7 7 8 7 7 6 6 5 5 5 5 6 4 4 5
4 2 5 1 3 1 1 1 2 1 1 2 2 8 11 7 5 1 2 1 2 11 10 8 16 6 2 1 2 1 4 5 5 6 8 9 8 10 10 10 11 11 11 11 12 12 11 11 12 13 12 11 11 9 9 10 9 10 9 9 10 9 8 9 8 9 8 9 10 8 8 8 7 7 7 7 6 6 6 5 5 4 4 4 4 3
6 7 9 9 13 14 11 11 10 7 10 5 4 4 5 10 13 7 9 9 9 11 10 8 12 1 2 1 1 2 3 4 2 4 5 7 10 11 8 9 11 12 13 13 12 12 15 15 11 10 10 10 11 11 10 10 9 9 8 9 8 10 9 9 8 9 10 9 10 9 9 8 7 7 7 7 7 7 6 6 5 4 4 4 3 3
2 2 11 14 16 17 16 1 1 9 4 8 10 13 16 15 12 9 6 5 17 6 8 18 15 2 3 4 3 4 4 5 5 4 7 8 7 7 8 10 10 11 13 16 15 13 9 9 14 14 12 11 11 10 10 10 10 9 9 9 8 8 10 9 10 9 10 9 9 9 9 8 8 8 8 7 7 6 6 6 5 5 4 3 3 3
2 3 13 17 19 20 17 6 2 14 12 14 13 15 17 15 16 14 14 20 8 6 15 16 6 13 9 6 7 7 6 5 6 6 5 5 9 12 11 7 8 7 8 9 9 13 17 17 13 12 13 12 12 11 10 9 9 10 10 11 9 10 10 9 10 10 10 10 9 9 9 8 8 8 8 7 7 7 6 6 5 5 4 3 2 2
5 11 13 11 16 19 14 6 1 4 7 8 13 16 18 18 16 17 22 22 7 13 22 8 12 15 12 11 11 11 11 12 13 14 12 7 6 6 9 11 12 13 12 14 16 16 15 15 15 15 14 14 12 13 12 11 10 9 9 9 9 10 12 11 11 11 11 10 10 10 9 9 8 8 8 9 8 8 7 6 5 4 4 3 2 3
2 8 6 4 13 14 14 13 6 5 3 4 7 13 16 18 23 25 25 22 20 17 19 6 7 12 8 10 11 10 9 8 5 7 8 10 10 10 10 11 12 11 13 16 16 16 16 16 14 14 14 13 15 14 13 13 13 13 13 12 11 11 11 11 11 12 11 11 10 10 10 10 9 9 9 9 9 8 7 6 6 5 4 3 3 2
4 7 5 3 6 14 15 10 6 6 5 12 10 7 13 18 21 22 20 21 18 17 20 13 6 8 4 5 7 4 6 8 8 10 11 10 10 10 11 11 11 11 12 12 12 14 13 11 12 12 14 15 15 16 15 14 13 12 11 12 12 12 11 12 12 12 12 12 11 11 11 10 10 10 10 9 9 7 7 7 5 4 3 3 3 2
4 5 4 4 7 14 14 11 10 5 2 6 12 15 18 17 16 14 18 19 14 19 21 15 12 14 2 5 4 5 7 11 11 9 9 8 10 10 11 11 10 11 11 12 13 11 11 13 14 15 16 16 17 17 15 14 14 13 14 13 12 11 11 12 12 13 12 11 12 12 12 11 11 11 10 9 8 8 7 7 6 5 4 4 3 2
6 4 5 5 10 13 12 4 13 9 6 10 17 28 24 13 11 15 16 14 17 18 13 12 21 7 5 4 6 1 4 5 6 8 6 6 8 11 12 12 12 12 13 13 12 12 14 16 17 17 16 14 14 15 15 14 13 15 14 13 11 10 12 13 12 12 12 11 12 12 11 11 11 10 10 9 9 8 8 8 7 5 5 5 4 3
6 8 8 5 6 7 1 6 5 5 11 17 7 3 10 17 17 16 16 19 17 12 13 5 2 4 7 5 9 6 4 5 4 3 4 10 10 8 7 8 10 10 9 8 10 13 14 11 10 12 14 14 13 13 11 12 13 12 9 9 9 12 12 13 12 12 12 11 12 12 11 11 10 10 10 9 9 9 8 8 7 5 4 4 4 4
12 10 10 5 4 5 4 7 5 13 17 2 5 4 2 6 15 18 18 13 12 12 12 6 5 6 9 8 6 5 5 2 4 2 3 7 10 11 12 10 9 10 11 11 11 10 10 11 10 9 9 11 12 11 11 11 11 10 10 12 13 12 13 12 12 12 12 12 11 11 10 12 10 10 9 9 9 9 9 8 7 6 6 6 5 6
10 12 4 4 3 4 3 7 7 8 2 5 5 4 4 1 2 4 9 11 11 13 12 13 7 5 6 3 5 4 4 3 4 3 0 4 8 9 8 8 9 10 11 11 11 11 11 11 13 14 13 9 10 11 12 13 12 12 13 11 13 12 12 12 11 12 11 11 11 12 12 12 11 10 9 10 9 9 9 8 8 8 6 5 4 4
8 6 5 6 5 7 5 10 11 5 7 0 2 1 4 6 6 11 11 14 11 5 8 7 6 7 5 4 5 5 4 3 1 3 1 1 3 4 7 7 9 9 8 7 10 10 10 10 10 9 7 8 10 11 12 11 11 12 10 11 11 12 11 11 12 12 12 12 12 12 12 12 12 11 11 10 10 10 10 10 8 6 5 6 5 5
0 10 5 8 4 7 4 2 2 3 13 6 3 3 1 2 3 5 8 6 3 5 6 7 6 8 7 5 5 4 3 3 5 7 5 4 2 4 3 4 4 5 6 6 5 5 6 6 6 7 9 9 10 10 9 9 11 10 10 11 10 11 10 10 13 11 10 11 12 13 12 12 12 12 11 11 12 11 9 7 5 7 6 8 7 6
1 2 2 8 2 5 4 6 6 9 5 4 5 2 0 2 8 6 4 7 2 3 5 8 7 9 13 11 7 6 5 5 8 8 7 6 5 4 7 5 6 6 6 8 10 9 7 7 8 8 7 8 9 8 9 9 11 11 10 10 10 11 11 13 12 11 11 12 12 12 11 10 11 11 12 12 11 10 11 10 9 7 6 6 5 5
4 3 4 2 6 5 7 6 8 2 2 2 3 0 1 3 8 6 3 5 2 6 4 7 8 8 7 9 10 9 9 8 9 7 5 11 9 6 8 10 8 8 6 5 5 7 8 7 8 7 8 9 9 7 9 9 10 10 10 9 9 10 13 13 12 12 12 11 10 9 9 9 11 11 12 12 9 8 8 7 7 8 7 5 5 5
4 3 5 8 4 5 6 4 1 4 1 2 3 1 0 1 7 5 8 3 1 1 3 2 2 6 10 10 9 8 9 4 2 1 3 6 7 5 4 4 5 7 9 8 7 7 7 6 8 9 9 7 7 7 8 8 9 9 9 10 10 13 15 14 12 10 8 8 8 8 9 8 10 11 9 8 10 9 7 7 8 8 7 7 5 5
1 3 0 3 5 6 4 4 3 2 3 4 1 3 1 6 3 7 2 1 3 3 1 3 5 5 8 11 9 5 2 4 4 4 5 5 6 5 6 8 8 6 4 5 7 7 7 6 6 5 5 5 7 7 7 8 9 8 8 9 12 15 12 6 7 7 8 9 9 9 9 9 7 7 8 8 9 9 7 5 6 7 7 6 6 6
8 7 6 7 3 2 1 4 1 5 1 6 7 3 2 5 4 3 3 2 1 3 4 2 5 6 7 5 4 4 5 4 5 4 4 5 7 7 8 8 9 9 9 7 5 4 8 7 6 6 5 5 6 6 6 8 8 7 8 10 15 8 5 7 7 8 9 9 9 9 9 8 10 9 8 9 9 10 9 7 8 7 7 7 6 6
3 5 3 3 4 5 6 6 5 2 5 6 10 9 6 5 2 5 7 4 0 2 4 4 1 5 5 7 7 5 5 5 3 4 4 4 5 5 5 5 5 5 4 3 5 7 6 7 6 6 4 4 4 5 6 9 9 8 8 14 7 5 6 7 8 8 9 9 9 9 8 8 8 8 7 9 9 8 9 8 7 7 7 6 7 6
5 6 2 5 4 6 4 2 1 2 5 4 1 2 3 2 2 2 3 6 5 3 2 3 5 4 5 5 5 6 3 4 5 5 6 6 7 7 7 7 8 8 8 8 7 5 5 8 8 6 5 4 5 4 6 6 10 8 11 8 5 7 8 8 8 9 9 9 9 9 8 7 8 8 7 7 9 10 9 8 8 8 5 6 6 6
3 2 1 3 2 2 2 2 2 2 5 1 1 1 4 4 1 1 6 4 4 4 6 5 3 4 4 5 7 3 5 5 6 4 5 5 6 4 4 5 4 4 4 5 5 5 5 5 5 6 6 3 4 4 5 5 7 11 10 4 6 6 8 9 9 8 9 8 8 9 9 9 7 6 6 6 5 6 7 10 9 8 7 7 6 6
3 2 1 3 3 4 4 2 2 4 5 2 2 2 3 2 1 0 1 1 2 4 3 1 3 5 5 5 6 6 5 6 6 5 5 6 6 6 7 7 6 8 9 8 7 8 6 6 7 6 6 7 5 6 5 6 7 7 3 6 6 7 8 9 9 8 8 9 8 8 9 11 9 7 6 5 5 5 6 6 7 7 8 8 7 7
3 3 2 3 0 3 1 3 1 1 0 1 1 4 3 2 2 2 2 2 3 3 4 2 4 4 4 4 5 7 6 6 8 6 6 6 7 7 6 7 7 5 4 5 7 7 6 7 8 8 7 8 8 7 7 7 8 6 4 5 6 7 8 9 10 11 10 10 9 9 9 9 10 10 8 8 8 8 7 7 7 8 9 10 9 9
4 6 4 4 4 2 3 0 1 1 1 3 3 3 1 3 4 1 2 2 2 4 4 4 3 4 5 5 4 6 7 6 7 8 8 5 5 5 6 6 7 8 7 7 7 9 11 9 8 8 9 9 6 7 7 8 6 5 6 5 6 8 9 9 7 7 8 8 8 8 8 8 9 9 9 8 7 7 7 10 10 9 6 5 6 8
7 4 2 5 2 4 7 6 5 5 3 5 7 8 6 3 5 4 3 2 3 4 4 4 3 3 3 3 5 6 8 6 6 6 7 7 7 7 5 5 5 5 5 5 6 7 7 8 9 9 9 8 5 7 8 8 7 6 5 6 6 8 10 9 8 7 8 8 8 7 8 8 8 8 8 8 8 7 5 6 10 7 8 7 10 14
6 4 6 5 6 4 4 9 8 4 3 5 10 9 7 5 5 5 6 6 5 4 5 6 5 3 2 1 1 5 5 8 7 6 6 5 7 7 8 7 7 5 6 5 6 5 6 8 7 6 6 6 5 7 8 7 6 7 7 7 7 9 9 9 8 7 7 8 9 10 10 8 8 8 7 7 7 7 7 4 7 13 15 11 10 12
Wind_Direction
131 186 192 199 214 219 211 213 231 238 256 283 16 285 276 282 273 302 133 135 251 248 229 241 254 260 264 181 196 186 181 205 204 174 172 167 162 166 160 155 148 135 121 120 117 103 111 97 92 87 91 81 77 57 57 55 29 36 61 65 62 49 53 70 86 79 85 90 90 79 73 76 65 64 64 61 53 53 51 48 48 47 46 44 42 38
54 210 224 220 224 219 233 220 219 238 259 264 289 296 285 253 265 260 184 199 69 156 273 257 275 266 262 257 175 164 175 204 204 185 181 176 173 166 160 148 147 116 122 137 126 119 100 104 109 93 80 94 74 35 51 44 19 59 55 52 57 54 56 58 63 72 65 59 67 91 79 86 75 68 65 67 55 58 55 51 49 49 48 49 49 44
215 222 225 227 229 243 251 259 261 227 228 236 221 251 263 255 262 289 92 124 59 75 274 268 264 265 263 259 164 178 186 203 206 188 184 171 169 163 161 151 142 130 142 155 132 127 112 114 105 95 93 81 77 58 45 12 63 63 58 55 58 54 55 53 63 74 81 77 78 90 95 94 91 71 75 79 74 65 63 55 51 49 49 49 50 46
241 236 233 233 233 238 245 193 286 320 267 261 227 199 239 271 298 284 18 134 224 179 278 331 306 279 274 264 237 195 190 175 111 138 145 163 166 162 169 160 151 154 149 154 146 148 147 136 117 109 103 99 89 54 26 19 67 62 61 66 68 70 65 71 74 89 88 89 91 87 96 89 90 95 81 77 68 63 61 55 50 49 48 48 51 46
218 227 197 202 221 237 227 198 192 204 248 212 216 233 241 225 232 218 230 230 165 251 247 290 282 274 247 247 235 133 61 80 114 89 69 23 102 126 126 136 158 159 155 151 151 139 146 143 137 130 121 105 95 80 44 37 60 74 73 79 84 82 87 89 92 94 102 105 99 101 101 93 90 74 69 70 61 56 59 62 48 45 44 47 49 45
247 236 54 198 199 196 210 234 199 180 231 244 217 208 229 236 253 259 234 105 353 283 202 170 322 265 223 224 221 156 93 177 160 157 182 173 138 114 133 151 153 147 154 149 147 150 150 137 125 124 121 114 116 92 41 35 79 83 84 82 86 98 107 115 113 113 113 111 118 114 99 97 91 80 68 65 73 67 59 61 59 51 47 48 49 46
243 153 161 172 165 177 202 212 204 163 222 231 277 213 214 226 270 321 319 2 295 243 338 166 188 275 345 310 182 176 190 202 163 204 200 181 181 169 171 164 161 150 146 142 138 142 135 139 140 135 133 129 116 103 93 81 81 78 78 78 75 77 69 76 95 102 90 85 84 86 89 96 101 102 81 87 78 81 78 75 64 59 50 47 52 46
113 147 125 136 159 172 190 215 201 167 185 243 262 351 99 114 211 241 261 225 250 331 231 175 163 274 288 247 202 179 182 204 200 210 205 193 184 180 178 170 162 161 155 142 142 141 139 143 145 139 125 116 117 111 87 78 81 86 91 90 84 70 64 56 67 76 80 91 92 97 99 95 94 95 105 95 93 85 87 80 73 68 57 50 49 51
152 181 149 177 182 186 210 210 182 172 172 191 238 107 78 96 254 303 239 254 251 355 266 172 184 297 248 277 151 156 174 209 222 209 206 196 180 176 179 164 163 161 155 146 147 150 148 150 137 125 112 110 108 103 104 102 94 91 91 91 83 75 67 65 74 82 82 89 97 102 109 103 93 100 102 99 92 92 83 83 74 72 67 58 51 49
341 183 182 180 180 215 175 18 311 164 192 206 149 63 83 93 73 290 267 247 304 253 247 169 174 221 275 187 145 193 229 224 226 205 199 189 176 174 173 160 158 154 150 150 149 139 135 124 121 120 115 102 109 116 107 99 96 97 97 96 94 87 86 85 83 88 89 94 103 107 109 112 111 107 102 98 95 90 85 82 75 69 66 60 53 44
145 160 83 198 220 196 110 54 22 69 98 150 122 95 70 83 177 64 214 84 356 243 239 172 191 178 281 228 182 168 213 216 200 155 169 168 166 173 170 159 159 155 153 151 145 138 124 114 119 128 129 124 116 121 113 108 112 112 106 107 99 98 93 90 92 94 99 103 109 113 114 112 115 114 114 111 100 94 89 89 82 76 69 63 57 46
135 72 253 265 62 94 111 64 15 357 139 131 137 123 118 348 52 298 299 170 196 263 182 186 188 186 216 286 183 194 346 204 179 171 168 171 173 172 168 164 159 156 153 147 142 136 131 133 143 137 133 139 140 120 113 120 118 117 118 114 105 96 96 96 99 100 102 107 107 106 109 111 113 114 112 111 111 111 106 101 93 83 75 65 61 51
235 188 131 65 298 140 148 97 9 18 338 164 120 118 128 215 67 278 143 216 209 244 294 212 181 211 235 226 76 190 219 15 58 164 168 169 169 169 167 164 159 155 151 148 146 144 148 154 159 151 146 140 143 138 136 138 131 124 120 118 111 107 107 106 110 111 110 106 106 107 104 101 102 103 104 105 101 100 98 97 94 87 84 72 62 49
267 174 181 169 33 229 160 171 151 267 226 175 163 161 138 189 208 240 192 223 266 258 262 199 23 255 349 276 227 229 106 15 335 171 161 163 168 168 164 160 155 157 159 155 152 153 157 159 162 154 149 147 143 142 142 141 135 129 122 118 113 118 117 117 113 113 109 103 103 101 102 100 101 99 98 95 98 95 92 94 97 96 93 87 80 68
236 307 223 142 232 165 200 205 191 175 156 198 178 170 186 176 172 220 184 215 216 214 326 268 108 235 111 242 352 48 56 358 321 89 134 140 145 147 148 147 149 157 161 157 156 159 162 162 161 154 151 148 144 144 143 140 137 130 125 124 124 125 123 119 117 113 108 105 100 99 97 98 96 98 96 93 92 95 96 92 95 90 83 83 78 75
211 232 188 180 140 161 199 211 149 114 142 208 190 190 226 213 116 230 190 23 33 9 291 229 202 209 199 347 79 89 63 12 344 99 123 132 140 146 153 161 166 166 163 160 157 159 161 159 155 150 150 147 145 144 145 143 141 133 132 130 130 130 129 124 118 111 109 102 96 91 94 94 96 95 94 92 88 87 90 92 90 90 89 88 87 77
131 230 90 99 111 173 204 176 200 143 195 200 148 215 203 43 198 282 354 68 100 4 252 145 279 287 346 271 166 172 109 97 310 145 140 149 152 158 167 169 170 168 163 165 166 165 157 154 157 153 148 147 146 147 152 150 145 141 138 136 131 128 125 122 115 111 107 107 105 101 98 98 96 98 102 104 101 96 90 89 86 89 90 88 86 92
158 193 324 124 183 2 41 314 226 47 65 103 196 217 88 77 72 149 239 46 179 234 264 151 213 231 149 261 142 152 170 183 212 192 161 162 160 170 178 174 174 171 169 163 155 157 157 157 153 148 147 151 152 151 147 145 142 139 140 140 136 136 131 126 121 119 119 116 109 105 100 96 101 107 106 104 105 104 100 92 89 90 92 100 100 98
144 250 207 295 56 6 354 37 9 65 38 129 174 249 145 245 248 223 87 250 224 235 258 217 206 227 190 222 143 204 194 197 198 197 170 174 180 183 176 173 171 160 157 164 166 166 165 164 163 158 154 151 149 149 145 143 138 137 137 139 140 139 136 132 128 123 115 112 113 113 111 113 109 104 102 99 96 94 96 98 103 107 106 94 91 88
80 203 285 326 27 132 70 168 196 189 277 106 243 337 268 89 214 149 196 245 156 263 341 261 135 258 182 222 176 196 201 191 177 191 197 189 186 180 178 175 175 172 173 174 172 172 168 166 165 162 159 158 157 154 149 143 140 142 142 141 139 131 129 128 128 128 124 122 121 118 111 106 109 107 107 104 104 102 104 110 110 110 106 108 99 87
265 134 259 70 307 116 210 193 199 173 184 228 142 239 220 180 296 101 297 199 182 222 234 287 276 258 227 178 174 193 193 184 178 191 195 191 188 186 181 177 177 178 177 177 174 172 169 165 162 158 153 148 145 145 144 147 150 147 144 145 145 142 140 137 135 130 129 125 125 122 121 121 114 108 102 101 100 103 103 102 108 110 111 95 80 85
172 130 222 110 292 223 262 178 208 198 197 191 187 198 189 166 183 174 249 156 216 190 240 206 252 253 312 353 185 184 185 179 190 184 186 190 184 184 182 180 180 179 181 176 174 170 164 161 159 153 145 143 147 152 151 151 147 148 151 150 144 142 145 142 139 138 134 129 127 125 121 115 108 102 102 102 102 103 104 109 112 117 99 91 81 79
160 160 165 193 215 213 216 288 217 103 63 243 205 233 185 203 171 186 233 218 191 232 70 222 331 262 203 344 29 32 163 184 183 179 184 182 182 184 184 181 182 181 176 176 173 169 166 166 164 160 158 160 162 158 155 158 158 158 155 150 150 148 153 147 142 136 132 131 128 124 119 114 111 110 109 110 110 108 109 108 101 97 95 89 94 83
82 136 163 253 37 26 352 180 172 61 106 333 281 196 155 200 191 204 210 149 189 215 204 244 244 271 330 34 357 28 52 88 147 175 176 175 177 184 180 174 174 172 176 168 166 163 165 162 155 156 163 165 169 168 168 164 159 160 158 156 153 155 150 142 140 137 133 129 125 125 121 119 121 118 120 117 118 116 115 105 91 86 93 103 101 102
144 206 177 166 289 302 279 305 302 24 57 222 189 207 213 217 213 267 44 7 262 221 200 168 242 229 262 27 11 12 65 82 112 147 158 164 172 177 177 173 170 169 163 166 170 168 160 162 171 176 173 172 170 169 167 169 167 166 162 160 158 155 151 143 141 138 137 135 133 132 128 130 131 129 125 122 124 120 113 104 99 94 105 109 113 124
170 155 152 198 222 233 225 214 203 199 205 212 221 211 214 212 202 168 222 214 231 238 160 220 242 251 279 131 177 97 85 82 78 100 138 165 166 168 171 167 165 166 174 171 166 163 174 178 174 172 176 174 176 174 171 171 170 168 163 165 159 155 150 148 142 144 140 141 139 138 137 139 136 133 130 128 123 119 114 109 107 105 95 107 122 123
158 185 182 200 217 230 240 81 225 130 91 193 208 186 211 213 212 208 220 199 224 221 168 227 222 244 274 216 220 184 161 164 165 173 156 153 159 160 165 165 168 174 172 173 175 174 163 170 185 183 178 177 173 175 175 174 171 169 166 166 163 158 152 153 149 148 145 145 144 141 144 145 143 136 133 131 125 117 112 112 116 109 104 101 122 138
93 183 214 215 221 235 241 236 200 154 183 207 196 205 210 203 206 201 201 221 192 98 242 235 166 228 222 217 210 197 194 181 182 189 180 165 165 162 162 158 146 147 162 165 169 175 184 188 180 178 180 175 177 174 173 174 174 172 171 171 165 159 156 157 153 151 150 149 148 148 151 148 142 136 134 127 120 115 114 113 108 106 105 113 129 121
154 212 225 211 237 244 252 247 211 230 197 202 203 204 203 205 202 205 222 229 169 200 236 224 169 217 219 194 202 198 182 189 189 191 184 158 130 128 141 157 171 175 173 178 187 189 187 183 186 181 177 179 172 176 174 171 174 174 172 174 170 163 166 160 156 156 155 154 154 156 150 142 138 133 127 125 122 122 125 127 120 119 128 141 142 130
115 245 231 177 244 254 253 252 239 246 264 256 222 214 211 202 206 208 220 222 214 227 237 213 205 218 211 194 190 199 188 178 159 135 130 149 165 158 157 171 179 178 180 187 191 195 194 190 182 179 176 176 179 177 178 178 180 180 176 178 174 168 166 160 164 160 161 161 159 153 149 144 141 138 133 132 134 136 135 135 132 134 140 148 144 141
169 243 178 164 243 252 246 247 245 236 244 249 247 244 222 215 214 214 220 228 228 243 247 244 268 256 264 179 182 161 123 107 113 141 163 162 157 164 169 178 180 184 190 194 195 197 194 185 181 178 181 182 182 184 184 182 179 176 177 179 177 171 169 164 167 169 166 165 161 156 150 147 147 142 145 146 142 142 144 139 141 145 152 157 142 140
169 260 53 142 216 253 245 217 237 240 266 266 260 243 237 220 214 212 221 223 212 226 234 237 251 250 215 153 135 122 137 144 153 154 151 161 170 165 171 180 182 191 194 196 197 191 184 184 184 185 187 188 189 186 183 180 179 178 184 181 178 171 166 170 173 172 171 165 160 158 156 154 150 151 151 149 150 149 146 138 141 153 162 161 156 172
191 153 169 173 222 242 259 163 228 229 264 273 251 239 230 223 216 220 227 224 218 217 227 219 228 224 191 151 128 176 164 170 139 156 146 146 169 175 177 184 192 195 200 196 190 189 190 191 192 190 190 190 188 187 189 178 173 185 185 180 174 157 171 176 176 174 171 168 165 163 160 157 157 157 155 156 150 147 143 144 149 161 171 178 175 172
184 191 216 175 229 243 215 150 134 180 223 234 252 0 213 215 212 216 220 220 222 197 225 222 241 135 165 144 174 192 187 210 183 192 159 163 167 187 198 196 198 196 197 193 191 196 198 190 191 193 192 191 189 187 177 175 182 184 173 163 157 168 176 176 180 177 175 169 169 164 160 159 159 161 160 153 150 149 149 152 168 171 171 166 165 175
188 194 218 178 214 220 129 129 172 218 229 259 326 287 335 231 212 219 229 225 222 220 230 228 162 158 181 180 183 188 192 33 48 107 143 162 162 176 190 195 188 181 183 186 191 193 187 187 185 179 177 185 182 174 166 177 178 171 169 169 174 177 177 182 179 180 177 172 169 161 162 163 163 161 158 156 153 154 156 160 163 168 177 174 178 181
189 193 178 217 145 47 140 173 221 231 268 301 292 285 270 44 188 176 246 235 220 216 210 221 193 178 158 114 52 48 101 104 58 21 231 190 173 175 174 185 185 176 187 190 182 183 182 182 184 185 190 176 163 172 176 182 176 173 181 171 176 177 180 178 182 183 177 173 170 169 169 166 165 161 159 157 157 159 162 165 173 172 172 166 181 179
190 188 188 223 167 206 181 206 234 6 313 239 10 199 162 163 162 182 217 233 215 184 178 194 168 159 137 108 114 80 91 74 202 267 278 208 180 177 177 182 172 181 171 171 173 182 182 179 179 181 163 162 170 171 184 179 172 174 167 171 181 177 179 180 185 188 182 174 173 174 172 170 165 165 164 162 162 169 168 167 170 171 166 166 178 175
189 195 192 205 223 162 153 189 326 267 250 257 210 249 224 295 185 187 188 275 115 173 162 161 176 150 139 127 122 135 101 123 245 256 242 235 186 133 110 130 130 133 138 136 130 137 145 150 144 149 155 164 173 177 169 163 165 164 169 175 173 174 180 184 194 190 179 178 178 179 175 174 170 166 165 166 176 175 171 161 161 170 169 170 175 183
94 114 9 205 219 126 185 212 207 222 236 125 240 257 178 134 108 86 66 260 260 174 187 168 185 161 163 159 161 139 116 197 241 239 226 177 190 162 119 108 118 127 135 144 145 143 141 146 148 153 150 154 167 171 158 158 156 161 173 173 173 176 182 193 194 186 183 186 184 181 175 172 169 167 168 174 179 170 166 170 172 166 153 164 171 176
160 175 172 191 203 196 197 205 223 210 232 243 230 350 154 139 89 68 65 271 250 208 195 173 194 174 168 153 152 158 166 214 236 248 195 185 181 165 147 142 130 125 121 121 116 132 133 129 119 128 144 159 169 157 151 153 158 167 170 172 163 175 194 198 193 191 191 184 175 172 168 170 170 171 172 175 163 165 165 150 147 160 158 164 160 163
172 200 204 208 177 193 192 241 351 297 262 214 186 200 317 80 80 103 199 218 212 39 14 129 161 154 150 156 163 172 218 196 174 138 104 117 106 100 96 109 128 133 136 132 134 129 125 132 142 153 160 160 148 142 144 144 152 167 170 165 171 193 200 199 191 185 172 161 161 166 170 168 174 171 169 162 160 155 150 155 156 149 152 162 159 161
112 119 191 151 212 206 204 189 235 267 228 148 350 164 239 87 152 197 229 309 154 143 49 128 140 157 155 165 185 191 135 116 100 76 112 128 131 123 123 122 112 94 84 110 125 127 124 122 118 113 112 123 131 137 141 147 156 170 161 171 191 207 201 168 166 162 158 163 167 166 165 165 159 153 151 145 144 151 152 147 142 149 147 155 161 169
183 148 200 189 180 86 163 212 166 241 216 123 124 45 337 133 236 166 143 351 82 167 136 122 139 169 156 179 172 126 127 115 131 139 134 140 135 141 140 138 137 140 138 129 113 123 130 127 131 136 135 126 132 138 149 148 159 163 171 181 211 196 147 159 155 159 162 160 161 166 162 156 155 154 152 154 158 154 153 148 145 145 148 156 161 168
211 113 205 205 184 151 176 193 202 214 146 194 146 169 191 196 193 159 140 131 1 122 158 134 167 175 177 161 159 137 142 134 113 125 109 107 118 111 120 126 132 133 131 127 138 145 129 123 127 127 120 125 135 146 152 159 161 170 172 209 193 133 150 150 158 153 158 163 161 152 154 153 150 149 150 153 152 153 150 152 147 147 158 161 160 170
216 177 200 170 198 152 199 190 224 254 164 165 100 266 133 140 132 200 127 140 154 238 182 147 189 171 171 149 149 144 141 179 159 156 140 152 145 152 153 166 159 158 157 153 156 147 138 146 147 136 128 135 147 155 164 163 165 167 196 211 143 169 159 160 153 158 160 159 156 153 147 142 148 152 154 158 158 156 156 150 152 152 167 162 173 179
352 143 213 82 296 107 59 127 138 70 151 136 342 306 127 133 55 79 140 134 213 184 177 173 186 164 163 153 138 176 161 156 132 129 115 135 145 154 134 124 126 128 130 121 131 146 142 124 127 139 151 168 176 174 176 179 161 175 210 153 162 159 157 150 153 158 162 153 153 151 146 144 143 145 151 156 165 166 163 160 164 163 165 172 185 192
216 144 97 133 245 138 236 50 87 157 159 138 82 33 49 91 147 104 80 112 160 149 147 94 150 169 165 149 162 155 153 144 134 139 143 139 154 158 162 158 158 160 155 166 168 147 136 139 148 167 172 187 203 188 193 188 203 200 136 161 156 152 149 154 156 156 152 159 152 149 155 155 158 155 154 160 158 161 157 159 163 166 169 176 182 192
279 174 81 205 237 165 227 157 219 278 248 180 155 167 166 149 85 68 106 109 83 99 135 148 111 114 132 135 158 145 155 148 141 154 156 164 167 170 167 169 165 166 193 155 153 154 147 159 173 181 184 201 203 194 193 200 208 195 159 147 148 143 145 155 165 167 170 162 159 161 166 163 160 159 165 175 172 173 169 175 180 181 183 180 184 180
163 123 208 168 155 141 29 166 277 84 121 243 263 267 252 155 152 148 128 105 98 106 94 64 79 154 151 178 143 143 141 168 165 166 163 169 166 169 185 179 184 183 166 153 166 165 171 181 186 194 190 210 194 184 191 207 205 188 168 158 147 150 154 164 165 155 154 155 152 165 169 169 168 174 171 176 183 198 189 176 183 191 202 211 182 183
110 188 191 102 122 199 192 188 175 121 235 222 221 217 221 188 147 168 157 160 154 130 135 116 86 73 112 151 157 143 159 172 175 161 170 177 182 189 185 189 190 188 192 193 165 186 183 184 187 190 201 214 183 181 194 205 199 189 167 153 156 156 162 161 157 157 165 166 167 162 166 174 176 176 175 176 181 181 204 212 201 195 182 198 199 203
165 183 141 167 179 217 189 170 181 143 155 201 197 209 187 185 160 169 189 201 201 180 160 140 134 114 132 87 127 149 161 168 187 171 171 179 196 197 190 184 188 196 202 175 165 197 199 205 200 197 208 214 188 193 196 196 185 180 176 167 170 169 164 156 161 169 168 169 183 179 178 174 171 179 172 176 173 179 177 189 217 212 210 204 205 207